STARLINK-32365, 61625

Orbit data source: Space-Track

STARLINK-32365, 61625 is a payload satellite owned by SpaceX/Seattle (US) in LEO that was launched on Wed, 23 Oct 2024 UTC via an FALCON 9 launch vehicle from the Air Force Eastern Test Range (AFETR). Payload-class satellites include a variety of spacecraft equipped with specific instruments for various scientific and technological missions. These include communications satellites like Starlink; space stations such as the ISS; scientific satellites like the Hubble; Earth observation satellites from companies like Planet Labs, Umbra, and HawkEye 360; GPS; miniature CubeSats for education and research; and military/defense satellites.

Loading next visibility...
Identifier
61625, 2024-191E
Orbit
LEO
Country
Flag of USUS
Related business
Manufacturer
SpaceX/Seattle
Mission
Operational Commercial Communications
Bus & Motor
STARLINK V2M, Unknown motor
Mass
730 kg wet, ~700 kg dry
Launch date (UTC)
2024-10-23 (2 years ago)
Launch vehicle
FALCON 9
Launch site
Air Force Eastern Test Range (AFETR)
Object type
Payload
Rocket body
Debris
Shape & HBR
Box + 2 Pan, 17.7 m
Radar Cross Section
33.884 m², Large (>1 m²)

Expand to show TLE details & history
Last TLE update: 22 hours ago

TLE from 22 hours ago
0 STARLINK-32365
1 61625U 24191E   26167.12643258 -.00000971  00000-0 -25771-4 0  9995
2 61625  43.0048 318.3610 0000984 286.3054  73.7690 15.27583821 92591
Epoch: 2026-06-16T03:02Z
TLE epoch observation values (Epoch: 2026-06-16T03:02:03.774Z)
Latitude
-0°
Longitude
8.44233°
Altitude
482.625 km
Speed
7.626 km/s
True Right ascension
21h 13m 26s
True Declination
0° 00' 00"
Sunlit
Object was in full shadow at epoch
Visualization orbit readout
Latitude
Unknown
Longitude
Unknown
Altitude
Unknown
Speed
Unknown
Apparent Right ascension
Unknown
Apparent Declination
Unknown
Sunlit
N/A
Visualization observer readout
Local Sidereal Time
11:20:46
Azimuth
Unknown
Elevation
Unknown
Doppler factor
Unknown
Orbital elements
Apogee altitude
485.657 km
Perigee altitude
484.307 km
Semi-major axis
6,863.119 km
Eccentricity
0.0001
Inclination
43.0048°
RAAN
318.361°
Arg. of periapsis
286.3054°
True anomaly
73.77983°
Mean anomaly
73.769°
Eccentric anomaly
73.77441°
Mean motion
3.81734 °/min
Orbital period
94.31 mins
BSTAR
-0.000025771
Loading maneuver chart data...
Computing Atmospheric mass density...
Loading historical data...
Loading historical data...
Loading historical data...
Loading historical data...
Loading historical data...
Loading historical data...
Loading historical data...

Documentation

Showing up to 5 results
|